SCP
0 0 0 0 0 0 0 0 0 0 0 0 0 0 0 0 0 0 0 0 0 0 0 0 0 0 0 0 0 0 0 0 0 0 0 0 0 0 0 0 0 0 0
0 0 0 0 0 0 0 0 0 0 0 0 0 0 0 0 0 0 0 0 0 0 0 0 0 0 0 0 0 0 0 0 0 0 0 0 0 0 0 0 0 0 0
0 0 0 0 0 0 0 0 0 0 0 0 0 0 0 0 0 0 0 0 0 0 0 0 0 0 0 0 0 0 0 0 0 0 0 0 0 0 0 0 0 0 0
0 0 0 0 0 0 0 0 0 0 0 0 0 0 0 0 0 0 0 0 0 0 0 0 0 0 0 0 0 0 0 0 0 0 0 0 0 0 0 0 0 0 0
0 0 0 0 0 0 0 0 0 0 0 0 0 0 0 0 0 0 0 0 0 0 0 0 0 0 0 0 0 0 0 0 0 0 0 0 0 0 0 0 0 0 0
0 0 0 0 0 0 0 0 0 0 0 0 0 0 0 0 0 0 0 0 0 0 0 0 0 0 0 0 0 0 0 0 0 0 0 0 0 0 0 0 0 0 0
0 0 0 0 0 0 0 0 0 0 0 0 0 0 0 0 0 0 0 0 0 0 0 0 0 0 0 0 0 0 0 0 0 0 0 0 0 0 0 0 0 0 0
0 0 0 0 0 0 0 0 0 0 0 0 0 0 0 0 0 0 0 0 0 0 0 0 0 0 0 0 0 0 0 0 0 0 0 0 0 0 0 0 0 0 0
0 0 0 0 0 0 0 0 0 0 0 0 0 0 0 0 0 0 0 0 0 0 0 0 0 0 0 0 0 0 0 0 0 0 0 0 0 0 0 0 0 0 0
0 0 0 0 0 0 0 0 0 0 0 0 0 0 0 0 0 0 0 0 0 0 0 0 0 0 0 0 0 0 0 0 0 0 0 0 0 0 0 0 0 0 0
0 0 0 0 0 0 0 0 0 0 0 0 0 0 0 0 0 0 0 0 0 0 0 0 0 0 0 0 0 0 0 0 0 0 0 0 0 0 0 0 0 0 0
0 0 0 0 0 0 0 0 0 0 0 0 0 0 0 0 0 0 0 0 0 0 0 0 0 0 0 0 0 0 0 0 0 0 0 0 0 0 0 0 0 0 0
0 0 0 0 0 0 0 0 0 0 0 0 0 0 0 0 0 0 0 0 0 0 0 0 0 0 0 0 0 0 0 0 0 0 0 0 0 0 0 0 0 0 0
0 0 0 -0 -0 -0 0 0 0 0 0 0 0 0 0 0 0 0 0 0 0 0 0 0 0 0 0 0 0 0 0 0 0 0 0 0 0 0 0 0 0 0 0
0 0 0 0 -0 0 0 0 0 0 0 0 0 0 0 0 0 0 0 0 0 0 0 0 0 0 0 0 0 0 0 0 0 0 0 0 0 0 0 0 0 0 0
0 0 0 0 0 0 0 0 0 0 0 0 0 0 0 0 0 0 0 0 0 0 0 0 0 0 0 0 0 0 0 0 0 0 0 0 0 0 0 0 0 0 0
0 0 0 0 0 0 0 0 0 0 0 0 0 0 0 0 0 0 0 0 0 0 0 0 0 0 0 0 0 0 0 0 0 0 0 0 0 0 0 0 0 0 0
0 0 0 0 0 0 0 0 0 0 0 0 0 0 0 0 0 0 0 0 0 0 0 0 0 0 0 0 0 0 0 0 0 0 0 0 0 0 0 0 0 0 0
0 0 0 0 0 0 0 0 0 0 0 0 0 0 0 0 0 0 0 0 0 0 0 0 0 0 0 0 0 0 0 0 0 0 0 0 0 0 0 0 0 0 0
0 0 0 0 0 0 0 0 0 0 0 0 0 0 0 0 0 0 0 0 0 0 0 0 0 0 0 0 0 0 0 0 0 0 0 0 0 0 0 0 0 0 0
0 0 0 0 0 0 0 0 0 0 0 0 0 0 0 0 0 0 0 0 0 0 0 0 0 0 0 0 0 0 0 0 0 0 0 0 0 0 0 0 0 0 0
0 0 0 0 0 0 0 0 0 0 0 0 0 0 0 0 0 0 0 0 0 0 0 0 0 0 0 0 0 0 0 0 0 0 0 0 0 0 0 0 0 0 0
0 0 0 0 0 0 0 0 0 0 0 0 0 0 0 0 0 0 0 0 0 0 0 0 0 0 0 0 0 0 0 0 0 0 0 0 0 0 0 0 0 0 0
0 0 0 0 0 0 0 0 0 0 0 0 0 0 0 0 0 0 0 0 0 0 0 0 0 0 0 0 0 0 0 0 0 0 0 0 0 0 0 0 0 0 0
0 0 0 0 0 0 0 0 0 0 0 0 0 0 0 0 0 0 0 0 0 0 0 0 0 0 0 0 0 0 0 0 0 0 0 0 0 0 0 0 0 0 0
0 0 0 0 0 0 0 0 0 0 0 0 0 0 0 0 0 0 0 0 0 0 0 0 0 0 0 0 0 0 0 0 0 0 0 0 0 0 0 0 0 0 0
Wind_Speed_500mb
50 45 50 59 64 66 71 74 75 75 74 76 76 76 75 72 75 74 72 62 74 78 75 73 70 64 63 57 54 58 49 44 42 46 43 39 40 40 39 34 28 23 18
51 49 47 56 63 67 73 76 79 78 78 78 76 76 73 73 75 73 80 76 75 77 77 74 73 71 72 69 68 67 63 57 50 53 45 30 37 43 41 38 34 28 23
53 48 52 61 66 70 72 74 78 81 80 78 77 75 71 75 79 77 76 79 79 76 76 77 75 76 76 88 72 75 77 63 57 63 45 22 21 42 48 44 38 33 30
41 41 48 53 64 68 70 74 75 80 80 79 81 82 81 81 78 75 74 77 80 78 77 77 78 85 78 78 83 83 80 70 63 69 70 45 32 28 24 49 46 41 37
28 28 30 39 53 53 60 67 72 76 78 80 81 82 84 80 75 75 76 75 79 77 76 79 77 78 74 82 76 84 80 76 72 72 80 72 44 33 22 27 50 51 44
8 13 17 24 31 38 45 52 64 70 73 78 80 84 86 81 77 78 76 75 80 80 82 80 84 85 81 94 96 75 94 81 76 75 83 87 72 51 36 30 31 39 42
18 21 24 26 23 26 30 40 52 61 68 74 77 80 82 76 76 80 76 75 82 85 86 81 85 82 77 83 78 90 88 82 83 80 84 84 79 62 45 40 35 30 33
27 27 21 23 24 25 27 30 33 41 51 60 68 75 78 80 82 83 79 77 76 83 87 85 86 79 75 77 77 79 89 84 89 87 86 83 76 65 55 50 44 30 31
27 26 22 25 26 22 22 24 27 31 35 42 49 59 66 74 79 84 77 77 75 79 87 84 85 87 82 78 80 88 93 96 94 91 86 79 73 64 58 50 42 36 30
16 16 24 22 18 16 15 20 21 24 27 31 36 43 52 62 71 82 81 77 77 76 79 77 82 83 82 75 77 86 92 87 89 87 84 80 72 63 57 49 42 37 29
13 3 12 13 9 7 13 20 22 23 24 26 28 34 41 50 61 72 80 76 75 80 79 75 76 77 78 75 74 81 86 84 83 84 83 78 72 65 58 49 42 34 22
8 11 9 5 3 6 18 29 34 36 34 32 31 34 38 45 54 62 72 74 76 78 75 75 75 79 82 78 75 80 85 86 81 86 84 78 72 66 58 49 41 29 21
7 22 26 27 26 44 47 51 56 49 47 46 43 36 42 49 53 57 65 71 74 74 72 76 78 81 80 82 81 83 81 84 81 86 86 82 77 70 61 52 41 29 22
32 49 61 52 52 52 56 63 59 60 58 66 57 46 53 56 56 58 64 71 71 71 71 73 78 80 79 80 88 87 86 85 84 85 83 80 78 70 62 54 36 32 25
62 78 77 65 56 59 61 79 64 63 66 63 58 58 63 64 61 61 64 68 68 68 69 68 77 79 77 80 83 87 88 87 84 86 84 75 66 59 56 43 35 30 31
65 80 81 80 70 77 86 72 70 68 58 64 64 66 69 67 64 62 64 65 64 67 68 65 73 75 77 75 78 84 86 84 85 89 80 70 66 64 51 37 33 44 30
74 80 83 77 74 69 66 68 69 63 65 63 64 66 72 69 63 59 59 61 61 64 66 64 69 73 75 75 76 85 83 82 86 82 77 74 70 63 48 30 43 54 41
82 81 77 77 65 57 61 58 54 55 59 58 55 53 56 56 55 55 54 56 58 61 63 66 68 73 71 76 75 81 77 80 77 76 74 72 68 60 45 39 52 53 47
78 74 69 72 70 63 52 40 35 35 38 40 40 39 41 43 46 48 48 51 53 55 56 60 63 65 65 72 74 78 75 73 72 72 63 63 67 62 36 53 59 54 52
56 52 57 46 39 37 31 32 35 36 35 35 34 33 33 33 34 35 37 40 42 43 46 51 56 57 56 60 61 67 55 65 70 68 70 67 66 64 58 64 57 55 58
58 52 49 50 45 44 44 38 32 29 28 29 29 29 29 28 27 27 28 28 31 31 34 38 41 42 42 43 46 46 51 68 72 69 66 65 65 64 70 73 67 56 61
57 55 54 54 52 46 35 27 24 23 21 21 20 19 17 15 15 16 17 18 17 18 21 24 27 29 30 29 34 37 44 54 59 58 60 63 64 69 69 71 61 56 54
58 54 49 41 33 29 25 21 18 13 10 10 9 8 8 10 11 8 7 8 11 12 13 14 13 14 16 21 28 36 41 45 47 49 56 61 63 67 75 69 56 50 47
64 53 43 36 29 23 19 16 16 15 15 15 16 18 19 21 21 21 19 15 13 13 11 10 9 10 14 20 29 38 39 40 47 53 54 57 65 74 63 56 52 44 46
57 54 44 35 29 27 22 20 20 20 26 30 30 28 27 25 24 23 20 16 14 11 10 6 4 3 3 7 15 24 32 37 41 47 55 63 62 57 54 53 50 46 47
51 47 42 41 34 31 30 26 27 24 25 30 30 26 27 29 26 25 22 17 14 10 9 7 3 3 7 9 13 19 27 35 43 53 57 59 57 57 56 55 58 52 48
Wind_Direction_500mb
248 242 233 241 238 236 233 232 232 234 232 233 233 235 236 237 240 233 232 230 230 230 235 237 239 239 237 239 229 214 213 212 225 215 204 200 201 203 204 205 204 206 207
248 240 233 233 241 240 239 235 236 236 235 236 238 238 240 240 243 241 239 239 237 233 231 232 234 238 236 233 237 220 216 212 223 220 207 203 213 215 212 211 213 213 215
253 245 237 244 243 240 240 242 241 240 238 237 238 239 239 240 242 245 241 238 236 233 231 229 233 240 236 236 233 234 222 222 220 220 210 191 217 218 221 219 219 219 223
254 249 238 241 251 249 244 242 241 240 239 238 237 241 243 246 250 249 245 239 234 232 227 226 231 239 233 236 240 244 222 223 234 218 212 210 201 193 208 221 223 223 227
254 247 246 244 243 251 246 243 240 240 240 239 240 242 246 247 248 247 246 240 233 232 228 226 230 231 238 244 238 228 227 226 237 235 223 215 217 207 217 209 218 222 225
240 257 264 256 253 249 246 243 241 242 241 242 242 242 246 244 244 247 247 242 235 230 226 226 230 236 231 242 244 245 232 231 235 235 233 227 220 221 210 220 225 222 224
280 279 276 267 258 252 246 243 242 240 240 240 241 242 244 244 244 248 247 245 236 230 228 228 224 232 240 236 237 244 227 233 234 235 234 231 227 235 234 230 217 199 219
290 285 264 252 254 253 250 247 246 244 246 247 249 249 249 246 246 248 249 249 243 237 233 225 233 232 234 238 239 239 243 234 244 234 235 233 231 235 240 235 228 197 216
286 270 256 244 245 246 251 252 254 254 255 258 255 254 252 249 245 249 246 247 246 239 234 234 234 233 235 239 246 246 247 242 239 233 233 232 232 237 237 239 233 226 210
313 278 221 233 249 247 250 258 262 263 259 258 258 258 256 254 249 247 246 244 243 242 235 235 235 236 236 243 249 248 238 236 232 231 232 231 232 235 232 230 225 223 225
340 316 199 201 203 260 283 279 268 261 263 264 265 266 265 260 255 250 246 244 244 243 236 238 236 238 237 242 247 246 237 235 235 233 228 229 231 229 228 222 219 214 229
53 45 25 349 288 316 309 303 292 272 268 269 268 272 269 264 260 254 249 245 244 243 240 233 239 239 236 239 242 243 246 239 236 229 224 226 224 223 221 216 208 219 221
268 315 316 295 286 300 302 299 290 280 276 271 267 272 274 267 264 260 252 246 244 242 239 236 240 240 239 241 241 243 246 244 235 230 227 224 221 220 214 207 211 216 220
294 300 301 291 286 285 291 298 289 272 275 275 262 271 274 270 264 258 255 250 247 245 242 239 241 242 240 243 245 245 242 239 234 230 226 223 222 219 210 207 216 226 226
294 293 292 289 286 284 293 300 286 277 275 270 261 272 272 269 266 260 257 254 249 246 247 241 241 244 242 246 247 247 244 239 231 225 221 218 217 210 209 218 232 230 235
280 280 282 283 285 290 296 293 288 284 273 269 265 266 267 267 266 259 257 256 251 246 247 244 242 244 247 250 251 250 242 237 229 223 215 213 208 207 213 231 257 270 228
278 280 282 284 288 287 284 282 284 279 275 271 267 266 265 267 266 262 259 257 253 248 247 246 246 246 249 251 252 252 242 233 227 221 217 210 207 209 221 258 282 277 228
278 279 282 286 288 277 278 280 278 275 273 271 268 265 262 262 260 260 258 256 253 251 249 246 248 248 249 251 248 249 241 230 226 221 218 215 213 216 232 267 282 263 238
278 281 278 280 281 280 281 276 270 269 271 271 269 266 264 260 257 256 256 255 253 251 249 249 252 254 254 254 251 248 237 226 224 224 220 220 216 221 240 261 276 265 246
285 278 282 282 279 276 280 280 282 278 271 267 267 267 263 258 256 255 253 252 252 251 249 250 252 255 255 256 255 255 238 222 218 220 224 225 228 234 238 263 276 266 263
281 282 278 277 276 277 282 279 275 269 265 264 266 267 266 263 259 256 254 251 249 246 245 247 252 256 260 262 265 262 234 224 219 216 222 226 233 240 248 265 273 270 266
287 280 277 273 272 272 268 264 265 269 272 272 269 266 262 260 257 251 246 242 239 233 237 242 246 253 258 259 245 235 222 219 216 220 225 232 238 245 257 276 271 271 264
299 286 274 266 256 252 252 248 240 232 237 247 238 211 182 160 148 145 166 188 193 202 222 237 242 248 249 240 223 219 226 219 220 225 233 241 245 252 261 267 269 268 261
289 279 266 249 237 228 208 182 166 162 152 145 139 136 133 131 132 133 135 144 153 163 169 188 203 215 217 217 214 217 223 227 227 232 242 248 253 264 266 262 266 260 260
273 256 238 228 198 179 175 163 146 134 133 129 123 119 114 112 112 111 107 94 83 92 91 91 109 128 196 237 240 240 240 240 242 247 255 260 262 264 266 268 266 262 261
245 226 210 195 182 167 157 147 137 131 131 128 122 118 119 116 113 111 113 114 113 113 118 126 141 222 243 239 234 249 256 258 258 257 258 257 260 264 267 266 268 268 266
Wind_Speed_850mb
50 45 50 59 64 66 71 74 75 75 74 76 76 76 75 72 75 74 72 62 74 78 75 73 70 64 63 57 54 58 49 44 42 46 43 39 40 40 39 34 28 23 18
51 49 47 56 63 67 73 76 79 78 78 78 76 76 73 73 75 73 80 76 75 77 77 74 73 71 72 69 68 67 63 57 50 53 45 30 37 43 41 38 34 28 23
53 48 52 61 66 70 72 74 78 81 80 78 77 75 71 75 79 77 76 79 79 76 76 77 75 76 76 88 72 75 77 63 57 63 45 22 21 42 48 44 38 33 30
41 41 48 53 64 68 70 74 75 80 80 79 81 82 81 81 78 75 74 77 80 78 77 77 78 85 78 78 83 83 80 70 63 69 70 45 32 28 24 49 46 41 37
28 28 30 39 53 53 60 67 72 76 78 80 81 82 84 80 75 75 76 75 79 77 76 79 77 78 74 82 76 84 80 76 72 72 80 72 44 33 22 27 50 51 44
8 13 17 24 31 38 45 52 64 70 73 78 80 84 86 81 77 78 76 75 80 80 82 80 84 85 81 94 96 75 94 81 76 75 83 87 72 51 36 30 31 39 42
18 21 24 26 23 26 30 40 52 61 68 74 77 80 82 76 76 80 76 75 82 85 86 81 85 82 77 83 78 90 88 82 83 80 84 84 79 62 45 40 35 30 33
27 27 21 23 24 25 27 30 33 41 51 60 68 75 78 80 82 83 79 77 76 83 87 85 86 79 75 77 77 79 89 84 89 87 86 83 76 65 55 50 44 30 31
27 26 22 25 26 22 22 24 27 31 35 42 49 59 66 74 79 84 77 77 75 79 87 84 85 87 82 78 80 88 93 96 94 91 86 79 73 64 58 50 42 36 30
16 16 24 22 18 16 15 20 21 24 27 31 36 43 52 62 71 82 81 77 77 76 79 77 82 83 82 75 77 86 92 87 89 87 84 80 72 63 57 49 42 37 29
13 3 12 13 9 7 13 20 22 23 24 26 28 34 41 50 61 72 80 76 75 80 79 75 76 77 78 75 74 81 86 84 83 84 83 78 72 65 58 49 42 34 22
8 11 9 5 3 6 18 29 34 36 34 32 31 34 38 45 54 62 72 74 76 78 75 75 75 79 82 78 75 80 85 86 81 86 84 78 72 66 58 49 41 29 21
7 22 26 27 26 44 47 51 56 49 47 46 43 36 42 49 53 57 65 71 74 74 72 76 78 81 80 82 81 83 81 84 81 86 86 82 77 70 61 52 41 29 22
32 49 61 52 52 52 56 63 59 60 58 66 57 46 53 56 56 58 64 71 71 71 71 73 78 80 79 80 88 87 86 85 84 85 83 80 78 70 62 54 36 32 25
62 78 77 65 56 59 61 79 64 63 66 63 58 58 63 64 61 61 64 68 68 68 69 68 77 79 77 80 83 87 88 87 84 86 84 75 66 59 56 43 35 30 31
65 80 81 80 70 77 86 72 70 68 58 64 64 66 69 67 64 62 64 65 64 67 68 65 73 75 77 75 78 84 86 84 85 89 80 70 66 64 51 37 33 44 30
74 80 83 77 74 69 66 68 69 63 65 63 64 66 72 69 63 59 59 61 61 64 66 64 69 73 75 75 76 85 83 82 86 82 77 74 70 63 48 30 43 54 41
82 81 77 77 65 57 61 58 54 55 59 58 55 53 56 56 55 55 54 56 58 61 63 66 68 73 71 76 75 81 77 80 77 76 74 72 68 60 45 39 52 53 47
78 74 69 72 70 63 52 40 35 35 38 40 40 39 41 43 46 48 48 51 53 55 56 60 63 65 65 72 74 78 75 73 72 72 63 63 67 62 36 53 59 54 52
56 52 57 46 39 37 31 32 35 36 35 35 34 33 33 33 34 35 37 40 42 43 46 51 56 57 56 60 61 67 55 65 70 68 70 67 66 64 58 64 57 55 58
58 52 49 50 45 44 44 38 32 29 28 29 29 29 29 28 27 27 28 28 31 31 34 38 41 42 42 43 46 46 51 68 72 69 66 65 65 64 70 73 67 56 61
57 55 54 54 52 46 35 27 24 23 21 21 20 19 17 15 15 16 17 18 17 18 21 24 27 29 30 29 34 37 44 54 59 58 60 63 64 69 69 71 61 56 54
58 54 49 41 33 29 25 21 18 13 10 10 9 8 8 10 11 8 7 8 11 12 13 14 13 14 16 21 28 36 41 45 47 49 56 61 63 67 75 69 56 50 47
64 53 43 36 29 23 19 16 16 15 15 15 16 18 19 21 21 21 19 15 13 13 11 10 9 10 14 20 29 38 39 40 47 53 54 57 65 74 63 56 52 44 46
57 54 44 35 29 27 22 20 20 20 26 30 30 28 27 25 24 23 20 16 14 11 10 6 4 3 3 7 15 24 32 37 41 47 55 63 62 57 54 53 50 46 47
51 47 42 41 34 31 30 26 27 24 25 30 30 26 27 29 26 25 22 17 14 10 9 7 3 3 7 9 13 19 27 35 43 53 57 59 57 57 56 55 58 52 48
Wind_Direction_850mb
248 242 233 241 238 236 233 232 232 234 232 233 233 235 236 237 240 233 232 230 230 230 235 237 239 239 237 239 229 214 213 212 225 215 204 200 201 203 204 205 204 206 207
248 240 233 233 241 240 239 235 236 236 235 236 238 238 240 240 243 241 239 239 237 233 231 232 234 238 236 233 237 220 216 212 223 220 207 203 213 215 212 211 213 213 215
253 245 237 244 243 240 240 242 241 240 238 237 238 239 239 240 242 245 241 238 236 233 231 229 233 240 236 236 233 234 222 222 220 220 210 191 217 218 221 219 219 219 223
254 249 238 241 251 249 244 242 241 240 239 238 237 241 243 246 250 249 245 239 234 232 227 226 231 239 233 236 240 244 222 223 234 218 212 210 201 193 208 221 223 223 227
254 247 246 244 243 251 246 243 240 240 240 239 240 242 246 247 248 247 246 240 233 232 228 226 230 231 238 244 238 228 227 226 237 235 223 215 217 207 217 209 218 222 225
240 257 264 256 253 249 246 243 241 242 241 242 242 242 246 244 244 247 247 242 235 230 226 226 230 236 231 242 244 245 232 231 235 235 233 227 220 221 210 220 225 222 224
280 279 276 267 258 252 246 243 242 240 240 240 241 242 244 244 244 248 247 245 236 230 228 228 224 232 240 236 237 244 227 233 234 235 234 231 227 235 234 230 217 199 219
290 285 264 252 254 253 250 247 246 244 246 247 249 249 249 246 246 248 249 249 243 237 233 225 233 232 234 238 239 239 243 234 244 234 235 233 231 235 240 235 228 197 216
286 270 256 244 245 246 251 252 254 254 255 258 255 254 252 249 245 249 246 247 246 239 234 234 234 233 235 239 246 246 247 242 239 233 233 232 232 237 237 239 233 226 210
313 278 221 233 249 247 250 258 262 263 259 258 258 258 256 254 249 247 246 244 243 242 235 235 235 236 236 243 249 248 238 236 232 231 232 231 232 235 232 230 225 223 225
340 316 199 201 203 260 283 279 268 261 263 264 265 266 265 260 255 250 246 244 244 243 236 238 236 238 237 242 247 246 237 235 235 233 228 229 231 229 228 222 219 214 229
53 45 25 349 288 316 309 303 292 272 268 269 268 272 269 264 260 254 249 245 244 243 240 233 239 239 236 239 242 243 246 239 236 229 224 226 224 223 221 216 208 219 221
268 315 316 295 286 300 302 299 290 280 276 271 267 272 274 267 264 260 252 246 244 242 239 236 240 240 239 241 241 243 246 244 235 230 227 224 221 220 214 207 211 216 220
294 300 301 291 286 285 291 298 289 272 275 275 262 271 274 270 264 258 255 250 247 245 242 239 241 242 240 243 245 245 242 239 234 230 226 223 222 219 210 207 216 226 226
294 293 292 289 286 284 293 300 286 277 275 270 261 272 272 269 266 260 257 254 249 246 247 241 241 244 242 246 247 247 244 239 231 225 221 218 217 210 209 218 232 230 235
280 280 282 283 285 290 296 293 288 284 273 269 265 266 267 267 266 259 257 256 251 246 247 244 242 244 247 250 251 250 242 237 229 223 215 213 208 207 213 231 257 270 228
278 280 282 284 288 287 284 282 284 279 275 271 267 266 265 267 266 262 259 257 253 248 247 246 246 246 249 251 252 252 242 233 227 221 217 210 207 209 221 258 282 277 228
278 279 282 286 288 277 278 280 278 275 273 271 268 265 262 262 260 260 258 256 253 251 249 246 248 248 249 251 248 249 241 230 226 221 218 215 213 216 232 267 282 263 238
278 281 278 280 281 280 281 276 270 269 271 271 269 266 264 260 257 256 256 255 253 251 249 249 252 254 254 254 251 248 237 226 224 224 220 220 216 221 240 261 276 265 246
285 278 282 282 279 276 280 280 282 278 271 267 267 267 263 258 256 255 253 252 252 251 249 250 252 255 255 256 255 255 238 222 218 220 224 225 228 234 238 263 276 266 263
281 282 278 277 276 277 282 279 275 269 265 264 266 267 266 263 259 256 254 251 249 246 245 247 252 256 260 262 265 262 234 224 219 216 222 226 233 240 248 265 273 270 266
287 280 277 273 272 272 268 264 265 269 272 272 269 266 262 260 257 251 246 242 239 233 237 242 246 253 258 259 245 235 222 219 216 220 225 232 238 245 257 276 271 271 264
299 286 274 266 256 252 252 248 240 232 237 247 238 211 182 160 148 145 166 188 193 202 222 237 242 248 249 240 223 219 226 219 220 225 233 241 245 252 261 267 269 268 261
289 279 266 249 237 228 208 182 166 162 152 145 139 136 133 131 132 133 135 144 153 163 169 188 203 215 217 217 214 217 223 227 227 232 242 248 253 264 266 262 266 260 260
273 256 238 228 198 179 175 163 146 134 133 129 123 119 114 112 112 111 107 94 83 92 91 91 109 128 196 237 240 240 240 240 242 247 255 260 262 264 266 268 266 262 261
245 226 210 195 182 167 157 147 137 131 131 128 122 118 119 116 113 111 113 114 113 113 118 126 141 222 243 239 234 249 256 258 258 257 258 257 260 264 267 266 268 268 266